DELTA 1 DEB, 21326

Orbit data source: Space-Track

DELTA 1 DEB, 21326 is space debris in SSO originally from a launch on Thu, 12 Jun 1975 UTC launched from the Air Force Western Test Range (AFWTR). Debris objects in space refer to the collection of defunct objects orbiting the Earth. Examples of debris include non-operational satellites, rocket bodies, and fragments generated from explosions, collisions, or faulty payload assembly.

Loading next visibility...
Identifier
21326, 1975-052AU
Orbit
SSO
Country
Flag of USUS
Related business
Manufacturer
Unknown
Mission
Spacecraft
Bus & Motor
Unknown
Mass
Unknown
Launch date (UTC)
1975-06-12 (51 years ago)
Launch vehicle
Unknown
Launch site
Air Force Western Test Range (AFWTR)
Object type
Payload
Rocket body
Debris
Shape & HBR
Unknown shape, 0.1 m
Radar Cross Section
Small (<0.1 m²)

Expand to show TLE details & history
Last TLE update: 12 hours ago

TLE from 12 hours ago
0 DELTA 1 DEB
1 21326U 75052AU  26124.67521787  .00000159  00000-0  36004-3 0  9992
2 21326  99.8320  14.1220 0030674 157.1685 260.5239 13.41843701710142
Epoch: 2026-05-04T16:12Z
TLE epoch observation values (Epoch: 2026-05-04T16:12:18.823Z)
Latitude
56.15224°
Longitude
-106.41507°
Altitude
1,115.53 km
Speed
7.298 km/s
True Right ascension
23h 56m 53s
True Declination
56° 00' 02"
Sunlit
Object was in daylight at epoch
Visualization orbit readout
Latitude
Unknown
Longitude
Unknown
Altitude
Unknown
Speed
Unknown
Apparent Right ascension
Unknown
Apparent Declination
Unknown
Sunlit
N/A
Visualization observer readout
Local Sidereal Time
12:30:19
Azimuth
Unknown
Elevation
Unknown
Doppler factor
Unknown
Orbital elements
Apogee altitude
1,122.676 km
Perigee altitude
1,076.801 km
Semi-major axis
7,477.875 km
Eccentricity
0.00307
Inclination
99.832°
RAAN
14.122°
Arg. of periapsis
157.1685°
True anomaly
260.17742°
Mean anomaly
260.5239°
Eccentric anomaly
260.35064°
Mean motion
3.35642 °/min
Orbital period
107.26 mins
BSTAR
0.00036004
Loading maneuver chart data...
Computing Atmospheric mass density...
Loading historical data...
Loading historical data...
Loading historical data...
Loading historical data...
Loading historical data...
Loading historical data...
Loading historical data...

Documentation

Showing up to 5 results
|